TimeCST,TemperatureF,Dew PointF,Humidity,Sea Level PressureIn,VisibilityMPH,Wind Direction,Wind SpeedMPH,Gust SpeedMPH,PrecipitationIn,Events,Conditions,WindDirDegrees,DateUTC
12:15 AM,37.4,33.8,87,30.06,7.0,Calm,Calm,-,N/A,,Clear,0,2012-11-09 06:15:00
12:35 AM,37.4,33.8,87,30.06,7.0,Calm,Calm,-,N/A,,Clear,0,2012-11-09 06:35:00
12:55 AM,35.6,33.8,93,30.07,4.0,Calm,Calm,-,N/A,,Mostly Cloudy,0,2012-11-09 06:55:00
1:15 AM,33.8,32.0,93,30.06,4.0,Calm,Calm,-,N/A,,Overcast,0,2012-11-09 07:15:00
1:35 AM,33.8,32.0,93,30.06,4.0,Calm,Calm,-,N/A,,Scattered Clouds,0,2012-11-09 07:35:00
1:55 AM,33.8,32.0,93,30.06,2.5,Calm,Calm,-,N/A,,Clear,0,2012-11-09 07:55:00
2:15 AM,33.8,32.0,93,30.06,3.0,Calm,Calm,-,N/A,,Mostly Cloudy,0,2012-11-09 08:15:00
2:35 AM,33.8,32.0,93,30.06,2.5,Calm,Calm,-,N/A,,Mostly Cloudy,0,2012-11-09 08:35:00
2:55 AM,33.8,32.0,93,30.06,3.0,Calm,Calm,-,N/A,,Scattered Clouds,0,2012-11-09 08:55:00
3:35 AM,33.8,32.0,93,30.06,4.0,Calm,Calm,-,N/A,,Overcast,0,2012-11-09 09:35:00
3:55 AM,33.8,32.0,93,30.06,4.0,Calm,Calm,-,N/A,,Overcast,0,2012-11-09 09:55:00
4:15 AM,33.8,32.0,93,30.06,3.0,Calm,Calm,-,N/A,,Overcast,0,2012-11-09 10:15:00
4:35 AM,33.8,32.0,93,30.07,3.0,Calm,Calm,-,N/A,,Scattered Clouds,0,2012-11-09 10:35:00
4:55 AM,33.8,32.0,93,30.07,2.5,Calm,Calm,-,N/A,,Clear,0,2012-11-09 10:55:00
5:15 AM,32.0,32.0,100,30.08,2.5,Calm,Calm,-,N/A,,Clear,0,2012-11-09 11:15:00
5:55 AM,32.0,32.0,100,30.08,2.5,Calm,Calm,-,N/A,,Clear,0,2012-11-09 11:55:00
6:15 AM,32.0,32.0,100,30.08,1.2,Calm,Calm,-,N/A,,Mist,0,2012-11-09 12:15:00
6:35 AM,32.0,32.0,100,30.09,1.5,Calm,Calm,-,N/A,,Mist,0,2012-11-09 12:35:00
6:55 AM,32.0,32.0,100,30.09,1.2,Calm,Calm,-,N/A,,Mist,0,2012-11-09 12:55:00
7:35 AM,33.8,32.0,93,30.10,2.5,Calm,Calm,-,N/A,,Overcast,0,2012-11-09 13:35:00
7:55 AM,35.6,33.8,93,30.11,2.5,NNE,4.6,-,N/A,,Overcast,30,2012-11-09 13:55:00
8:15 AM,35.6,33.8,93,30.11,3.0,NE,3.5,-,N/A,,Overcast,40,2012-11-09 14:15:00
8:35 AM,35.6,33.8,93,30.12,4.0,NE,3.5,-,N/A,,Overcast,50,2012-11-09 14:35:00
8:55 AM,37.4,33.8,87,30.11,5.0,ENE,3.5,-,N/A,,Overcast,60,2012-11-09 14:55:00
9:15 AM,37.4,35.6,93,30.11,5.0,ENE,4.6,-,N/A,,Overcast,60,2012-11-09 15:15:00
9:35 AM,39.2,35.6,87,30.11,7.0,NE,4.6,-,N/A,,Overcast,50,2012-11-09 15:35:00
9:55 AM,39.2,35.6,87,30.12,7.0,ENE,4.6,-,N/A,,Overcast,60,2012-11-09 15:55:00
10:15 AM,41.0,35.6,81,30.12,7.0,ENE,3.5,-,N/A,,Overcast,60,2012-11-09 16:15:00
10:55 AM,41.0,37.4,87,30.12,7.0,NE,4.6,-,N/A,,Overcast,50,2012-11-09 16:55:00
11:15 AM,42.8,37.4,81,30.11,7.0,NNE,5.8,-,N/A,,Overcast,30,2012-11-09 17:15:00
11:35 AM,42.8,39.2,87,30.10,10.0,NE,5.8,-,N/A,,Overcast,50,2012-11-09 17:35:00
11:55 AM,44.6,41.0,87,30.09,7.0,ENE,5.8,-,N/A,,Overcast,70,2012-11-09 17:55:00
12:15 PM,44.6,41.0,87,30.09,10.0,ENE,8.1,-,N/A,,Overcast,70,2012-11-09 18:15:00
12:35 PM,44.6,41.0,87,30.08,10.0,ENE,5.8,-,N/A,,Overcast,70,2012-11-09 18:35:00
12:55 PM,46.4,41.0,81,30.07,10.0,ENE,8.1,-,N/A,,Overcast,70,2012-11-09 18:55:00
1:15 PM,46.4,41.0,81,30.07,10.0,ENE,6.9,-,N/A,,Overcast,70,2012-11-09 19:15:00
1:35 PM,46.4,41.0,81,30.06,10.0,ENE,9.2,-,N/A,,Overcast,70,2012-11-09 19:35:00
1:55 PM,46.4,41.0,81,30.06,10.0,ENE,8.1,-,N/A,,Overcast,70,2012-11-09 19:55:00
2:15 PM,46.4,41.0,81,30.06,10.0,ENE,6.9,-,N/A,,Overcast,60,2012-11-09 20:15:00
2:35 PM,46.4,41.0,81,30.07,10.0,ENE,6.9,-,N/A,,Overcast,60,2012-11-09 20:35:00
2:55 PM,46.4,41.0,81,30.06,10.0,ENE,8.1,-,N/A,,Overcast,70,2012-11-09 20:55:00
3:15 PM,46.4,41.0,81,30.07,10.0,ENE,8.1,-,N/A,,Overcast,70,2012-11-09 21:15:00
3:35 PM,46.4,41.0,81,30.06,10.0,ENE,8.1,-,N/A,,Overcast,60,2012-11-09 21:35:00
3:55 PM,44.6,39.2,81,30.07,10.0,NE,8.1,-,N/A,,Overcast,50,2012-11-09 21:55:00
4:15 PM,44.6,37.4,76,30.07,10.0,ENE,9.2,-,N/A,,Overcast,60,2012-11-09 22:15:00
4:35 PM,44.6,37.4,76,30.07,10.0,ENE,11.5,-,N/A,,Overcast,60,2012-11-09 22:35:00
4:55 PM,44.6,37.4,76,30.08,10.0,ENE,12.7,-,N/A,,Overcast,60,2012-11-09 22:55:00
5:15 PM,44.6,35.6,71,30.09,10.0,ENE,8.1,17.3,N/A,,Overcast,60,2012-11-09 23:15:00
5:35 PM,44.6,35.6,71,30.09,10.0,ENE,11.5,-,N/A,,Overcast,60,2012-11-09 23:35:00
5:55 PM,44.6,35.6,71,30.09,10.0,ENE,10.4,-,N/A,,Overcast,70,2012-11-09 23:55:00
6:15 PM,44.6,35.6,71,30.09,10.0,ENE,10.4,17.3,N/A,,Overcast,70,2012-11-10 00:15:00
6:35 PM,44.6,37.4,76,30.09,10.0,ENE,11.5,-,N/A,,Overcast,70,2012-11-10 00:35:00
6:55 PM,44.6,37.4,76,30.09,10.0,ENE,10.4,-,N/A,,Overcast,60,2012-11-10 00:55:00
7:15 PM,44.6,37.4,76,30.10,10.0,ENE,9.2,-,N/A,,Overcast,60,2012-11-10 01:15:00
7:35 PM,44.6,37.4,76,30.10,10.0,ENE,9.2,-,N/A,,Overcast,70,2012-11-10 01:35:00
7:55 PM,42.8,37.4,81,30.10,10.0,ENE,12.7,18.4,N/A,,Overcast,60,2012-11-10 01:55:00
8:15 PM,42.8,37.4,81,30.10,10.0,ENE,13.8,-,N/A,,Overcast,60,2012-11-10 02:15:00
8:35 PM,42.8,37.4,81,30.11,10.0,ENE,15.0,19.6,N/A,,Overcast,70,2012-11-10 02:35:00
8:55 PM,42.8,37.4,81,30.11,10.0,ENE,13.8,-,N/A,,Overcast,70,2012-11-10 02:55:00
9:15 PM,42.8,37.4,81,30.12,10.0,ENE,13.8,-,N/A,,Overcast,70,2012-11-10 03:15:00
9:35 PM,42.8,35.6,76,30.11,10.0,East,15.0,21.9,N/A,,Overcast,80,2012-11-10 03:35:00
9:55 PM,42.8,35.6,76,30.11,10.0,ENE,10.4,-,N/A,,Overcast,60,2012-11-10 03:55:00
10:15 PM,42.8,35.6,76,30.11,10.0,ENE,12.7,17.3,N/A,,Overcast,60,2012-11-10 04:15:00
10:35 PM,42.8,35.6,76,30.11,10.0,ENE,10.4,18.4,N/A,,Overcast,60,2012-11-10 04:35:00
10:55 PM,41.0,35.6,81,30.11,10.0,NE,10.4,-,N/A,,Overcast,50,2012-11-10 04:55:00
11:15 PM,41.0,33.8,76,30.11,10.0,ENE,15.0,20.7,N/A,,Overcast,60,2012-11-10 05:15:00
11:35 PM,41.0,33.8,76,30.11,10.0,ENE,12.7,-,N/A,,Overcast,60,2012-11-10 05:35:00
11:55 PM,41.0,33.8,76,30.11,10.0,ENE,11.5,-,N/A,,Overcast,60,2012-11-10 05:55:00